owner,sensor,date,latitude,longitude,vertical_datum,wind_speed,wind_to_direction,wind_speed_of_gust,qcFlag 
TABS,ioos:station:wmo:42045:1,2017-11-01T00:00:00Z,26.2168,-96.4998,4.0,10.15543204,215.3803999,12.24,'11111222,11111222,11111222' 
TABS,ioos:station:wmo:42045:1,2017-11-01T00:30:00Z,26.2168,-96.4998,4.0,10.32484867,214.783025,12.98,'11111222,11111222,11111222' 
TABS,ioos:station:wmo:42045:1,2017-11-01T01:00:00Z,26.2168,-96.4998,4.0,9.169689199,215.7702406,11.41,'11111222,11111222,11111222' 
TABS,ioos:station:wmo:42045:1,2017-11-01T01:30:00Z,26.2168,-96.4998,4.0,8.41085608,216.0525414,10.39,'11111222,11111222,11111222' 
TABS,ioos:station:wmo:42045:1,2017-11-01T02:00:00Z,26.2168,-96.4998,4.0,9.08784903,208.4546218,10.8,'11111222,11111222,11111222' 
TABS,ioos:station:wmo:42045:1,2017-11-01T02:30:00Z,26.2168,-96.4998,4.0,8.903982255,212.0123397,10.68,'11111222,11111222,11111222' 
TABS,ioos:station:wmo:42045:1,2017-11-01T03:00:00Z,26.2168,-96.4998,4.0,8.749245682,211.8736294,10.38,'11111222,11111222,11111222' 
TABS,ioos:station:wmo:42045:1,2017-11-01T03:30:00Z,26.2168,-96.4998,4.0,8.144329316,209.334902,9.8,'11111222,11111222,11111222' 
TABS,ioos:station:wmo:42045:1,2017-11-01T04:00:00Z,26.2168,-96.4998,4.0,6.7845781,199.6369464,8.06,'11111222,11111222,11111222' 
TABS,ioos:station:wmo:42045:1,2017-11-01T04:30:00Z,26.2168,-96.4998,4.0,7.290500669,200.4734238,9.21,'11111222,11111222,11111222' 
TABS,ioos:station:wmo:42045:1,2017-11-01T05:00:00Z,26.2168,-96.4998,4.0,7.332127931,214.9473366,9.23,'11111222,11111222,11111222' 
TABS,ioos:station:wmo:42045:1,2017-11-01T05:30:00Z,26.2168,-96.4998,4.0,7.87280128,218.3985138,10.12,'11111222,11111222,11111222' 
TABS,ioos:station:wmo:42045:1,2017-11-01T06:00:00Z,26.2168,-96.4998,4.0,6.901485347,207.5305565,8.82,'11111222,11111222,11111222' 
TABS,ioos:station:wmo:42045:1,2017-11-01T06:30:00Z,26.2168,-96.4998,4.0,5.674090235,217.1931522,7.26,'11111222,11111222,11111222' 
TABS,ioos:station:wmo:42045:1,2017-11-01T07:00:00Z,26.2168,-96.4998,4.0,7.101950436,193.3515672,9.7,'11111222,11111222,11111222' 
TABS,ioos:station:wmo:42045:1,2017-11-01T07:30:00Z,26.2168,-96.4998,4.0,7.720524594,222.7430583,9.52,'11111222,11111222,11111222' 
TABS,ioos:station:wmo:42045:1,2017-11-01T08:00:00Z,26.2168,-96.4998,4.0,6.700693994,207.7507212,8.78,'11111222,11111222,11111222' 
TABS,ioos:station:wmo:42045:1,2017-11-01T08:30:00Z,26.2168,-96.4998,4.0,8.19420527,222.8241154,10.86,'11111222,11111222,11111222' 
TABS,ioos:station:wmo:42045:1,2017-11-01T09:00:00Z,26.2168,-96.4998,4.0,8.449502944,219.2847544,10.63,'11111222,11111222,11111222' 
TABS,ioos:station:wmo:42045:1,2017-11-01T09:30:00Z,26.2168,-96.4998,4.0,7.502352964,221.4877816,10.18,'11111222,11111222,11111222' 
TABS,ioos:station:wmo:42045:1,2017-11-01T10:00:00Z,26.2168,-96.4998,4.0,8.189096409,217.8076051,9.56,'11111222,11111222,11111222' 
TABS,ioos:station:wmo:42045:1,2017-11-01T10:30:00Z,26.2168,-96.4998,4.0,8.244301062,219.7345027,10.39,'11111222,11111222,11111222' 
TABS,ioos:station:wmo:42045:1,2017-11-01T11:00:00Z,26.2168,-96.4998,4.0,7.610420488,217.4723192,9.3,'11111222,11111222,11111222' 
TABS,ioos:station:wmo:42045:1,2017-11-01T11:30:00Z,26.2168,-96.4998,4.0,7.683749085,218.6599283,9.26,'11111222,11111222,11111222' 
TABS,ioos:station:wmo:42045:1,2017-11-01T12:00:00Z,26.2168,-96.4998,4.0,8.896527412,224.0892814,11.87,'11111222,11111222,11111222' 
TABS,ioos:station:wmo:42045:1,2017-11-01T12:30:00Z,26.2168,-96.4998,4.0,5.310753242,224.3135059,7.02,'11111222,11111222,11111222' 
TABS,ioos:station:wmo:42045:1,2017-11-01T13:00:00Z,26.2168,-96.4998,4.0,7.18905418,203.3557207,10.2,'11111222,11111222,11111222' 
TABS,ioos:station:wmo:42045:1,2017-11-01T13:30:00Z,26.2168,-96.4998,4.0,4.532206968,236.9762097,6.05,'11111222,11111222,11111222' 
TABS,ioos:station:wmo:42045:1,2017-11-01T14:00:00Z,26.2168,-96.4998,4.0,6.460069659,269.7339231,7.98,'11111222,11111222,11111222' 
TABS,ioos:station:wmo:42045:1,2017-11-01T14:30:00Z,26.2168,-96.4998,4.0,5.134832032,265.6440948,6.2,'11111222,11111222,11111222' 
TABS,ioos:station:wmo:42045:1,2017-11-01T15:00:00Z,26.2168,-96.4998,4.0,4.809261898,249.6810485,6.67,'11111222,11111222,11111222' 
TABS,ioos:station:wmo:42045:1,2017-11-01T15:30:00Z,26.2168,-96.4998,4.0,4.749368379,255.1152438,6.68,'11111222,11111222,11111222' 
TABS,ioos:station:wmo:42045:1,2017-11-01T16:00:00Z,26.2168,-96.4998,4.0,5.026062077,237.1004639,6.58,'11111222,11111222,11111222' 
TABS,ioos:station:wmo:42045:1,2017-11-01T16:30:00Z,26.2168,-96.4998,4.0,4.353412455,237.9528395,5.36,'11111222,11111222,11111222' 
TABS,ioos:station:wmo:42045:1,2017-11-01T17:00:00Z,26.2168,-96.4998,4.0,5.151096971,229.7245459,6.41,'11111222,11111222,11111222' 
TABS,ioos:station:wmo:42045:1,2017-11-01T17:30:00Z,26.2168,-96.4998,4.0,6.434671709,225.0001052,8.1,'11111222,11111222,11111222' 
TABS,ioos:station:wmo:42045:1,2017-11-01T18:00:00Z,26.2168,-96.4998,4.0,6.555196412,227.7205304,8.18,'11111222,11111222,11111222' 
TABS,ioos:station:wmo:42045:1,2017-11-01T18:30:00Z,26.2168,-96.4998,4.0,7.138080975,232.8572778,8.47,'11111222,11111222,11111222' 
TABS,ioos:station:wmo:42045:1,2017-11-01T19:00:00Z,26.2168,-96.4998,4.0,7.188915078,237.9017616,8.73,'11111222,11111222,11111222' 
TABS,ioos:station:wmo:42045:1,2017-11-01T19:30:00Z,26.2168,-96.4998,4.0,6.838084527,232.8453047,8.3,'11111222,11111222,11111222' 
TABS,ioos:station:wmo:42045:1,2017-11-01T20:00:00Z,26.2168,-96.4998,4.0,6.393152587,228.932202,8.07,'11111222,11111222,11111222' 
TABS,ioos:station:wmo:42045:1,2017-11-01T20:30:00Z,26.2168,-96.4998,4.0,6.331074158,223.4000843,7.51,'11111222,11111222,11111222' 
TABS,ioos:station:wmo:42045:1,2017-11-01T21:00:00Z,26.2168,-96.4998,4.0,5.594649229,220.7235992,6.46,'11111222,11111222,11111222' 
TABS,ioos:station:wmo:42045:1,2017-11-01T21:30:00Z,26.2168,-96.4998,4.0,5.522073886,220.961543,6.7,'11111222,11111222,11111222' 
TABS,ioos:station:wmo:42045:1,2017-11-01T22:00:00Z,26.2168,-96.4998,4.0,5.830008576,216.7717447,7.15,'11111222,11111222,11111222' 
TABS,ioos:station:wmo:42045:1,2017-11-01T22:30:00Z,26.2168,-96.4998,4.0,6.037814174,218.2746039,7.34,'11111222,11111222,11111222' 
TABS,ioos:station:wmo:42045:1,2017-11-01T23:00:00Z,26.2168,-96.4998,4.0,6.239078458,215.8046918,7.59,'11111222,11111222,11111222' 
TABS,ioos:station:wmo:42045:1,2017-11-01T23:30:00Z,26.2168,-96.4998,4.0,6.410031201,214.3843574,7.56,'11111222,11111222,11111222' 
TABS,ioos:station:wmo:42045:1,2017-11-02T00:00:00Z,26.2168,-96.4998,4.0,6.621578362,211.0974506,7.57,'11111222,11111222,11111222' 
TABS,ioos:station:wmo:42045:1,2017-11-02T00:30:00Z,26.2168,-96.4998,4.0,6.642665128,213.3313585,8.29,'11111222,11111222,11111222' 
TABS,ioos:station:wmo:42045:1,2017-11-02T01:00:00Z,26.2168,-96.4998,4.0,7.033100312,209.1892618,8.54,'11111222,11111222,11111222' 
TABS,ioos:station:wmo:42045:1,2017-11-02T01:30:00Z,26.2168,-96.4998,4.0,6.852539675,207.6496481,7.91,'11111222,11111222,11111222' 
TABS,ioos:station:wmo:42045:1,2017-11-02T02:00:00Z,26.2168,-96.4998,4.0,6.967589253,206.6019746,8.48,'11111222,11111222,11111222' 
TABS,ioos:station:wmo:42045:1,2017-11-02T02:30:00Z,26.2168,-96.4998,4.0,7.370861551,205.7308559,8.76,'11111222,11111222,11111222' 
TABS,ioos:station:wmo:42045:1,2017-11-02T03:00:00Z,26.2168,-96.4998,4.0,7.360061141,208.3061725,8.97,'11111222,11111222,11111222' 
TABS,ioos:station:wmo:42045:1,2017-11-02T03:30:00Z,26.2168,-96.4998,4.0,7.473024823,206.2908957,8.83,'11111222,11111222,11111222' 
TABS,ioos:station:wmo:42045:1,2017-11-02T04:00:00Z,26.2168,-96.4998,4.0,8.035452694,209.1170772,9.55,'11111222,11111222,11111222' 
TABS,ioos:station:wmo:42045:1,2017-11-02T04:30:00Z,26.2168,-96.4998,4.0,8.492643876,211.125877,10.03,'11111222,11111222,11111222' 
TABS,ioos:station:wmo:42045:1,2017-11-02T05:00:00Z,26.2168,-96.4998,4.0,8.102993274,212.5526741,9.56,'11111222,11111222,11111222' 
TABS,ioos:station:wmo:42045:1,2017-11-02T05:30:00Z,26.2168,-96.4998,4.0,7.56616151,213.9002263,9.12,'11111222,11111222,11111222' 
TABS,ioos:station:wmo:42045:1,2017-11-02T06:00:00Z,26.2168,-96.4998,4.0,6.926073924,216.6053023,8.16,'11111222,11111222,11111222' 
TABS,ioos:station:wmo:42045:1,2017-11-02T06:30:00Z,26.2168,-96.4998,4.0,6.796822787,219.0285533,8.48,'11111222,11111222,11111222' 
TABS,ioos:station:wmo:42045:1,2017-11-02T07:00:00Z,26.2168,-96.4998,4.0,6.53723183,220.782033,7.53,'11111222,11111222,11111222' 
TABS,ioos:station:wmo:42045:1,2017-11-02T07:30:00Z,26.2168,-96.4998,4.0,5.712836423,218.6755914,6.76,'11111222,11111222,11111222' 
TABS,ioos:station:wmo:42045:1,2017-11-02T08:00:00Z,26.2168,-96.4998,4.0,4.806922092,208.8579347,5.57,'11111222,11111222,11111222' 
TABS,ioos:station:wmo:42045:1,2017-11-02T08:30:00Z,26.2168,-96.4998,4.0,5.261568207,214.2338421,6.8,'11111222,11111222,11111222' 
TABS,ioos:station:wmo:42045:1,2017-11-02T09:00:00Z,26.2168,-96.4998,4.0,5.728464018,218.5505856,7.07,'11111222,11111222,11111222' 
TABS,ioos:station:wmo:42045:1,2017-11-02T09:30:00Z,26.2168,-96.4998,4.0,6.271275787,219.6302226,7.62,'11111222,11111222,11111222' 
TABS,ioos:station:wmo:42045:1,2017-11-02T10:00:00Z,26.2168,-96.4998,4.0,5.896066485,217.1421159,6.96,'11111222,11111222,11111222' 
TABS,ioos:station:wmo:42045:1,2017-11-02T10:30:00Z,26.2168,-96.4998,4.0,5.353223328,219.8467999,6.44,'11111222,11111222,11111222' 
TABS,ioos:station:wmo:42045:1,2017-11-02T11:00:00Z,26.2168,-96.4998,4.0,5.556851627,215.0343836,6.51,'11111222,11111222,11111222' 
TABS,ioos:station:wmo:42045:1,2017-11-02T11:30:00Z,26.2168,-96.4998,4.0,6.388434863,214.7349888,7.85,'11111222,11111222,11111222' 
TABS,ioos:station:wmo:42045:1,2017-11-02T12:00:00Z,26.2168,-96.4998,4.0,6.102606001,217.6774783,7.36,'11111222,11111222,11111222' 
TABS,ioos:station:wmo:42045:1,2017-11-02T12:30:00Z,26.2168,-96.4998,4.0,6.156524994,219.0668921,7.18,'11111222,11111222,11111222' 
TABS,ioos:station:wmo:42045:1,2017-11-02T13:00:00Z,26.2168,-96.4998,4.0,6.94164966,222.8401312,8.33,'11111222,11111222,11111222' 
TABS,ioos:station:wmo:42045:1,2017-11-02T13:30:00Z,26.2168,-96.4998,4.0,7.081984185,223.1119216,8.62,'11111222,11111222,11111222' 
TABS,ioos:station:wmo:42045:1,2017-11-02T14:00:00Z,26.2168,-96.4998,4.0,6.644636935,217.6633486,7.79,'11111222,11111222,11111222' 
TABS,ioos:station:wmo:42045:1,2017-11-02T14:30:00Z,26.2168,-96.4998,4.0,7.410971596,215.9422383,9.06,'11111222,11111222,11111222' 
TABS,ioos:station:wmo:42045:1,2017-11-02T15:00:00Z,26.2168,-96.4998,4.0,7.5454092,212.5528615,8.83,'11111222,11111222,11111222' 
TABS,ioos:station:wmo:42045:1,2017-11-02T15:30:00Z,26.2168,-96.4998,4.0,6.444051521,212.5804353,8.01,'11111222,11111222,11111222' 
TABS,ioos:station:wmo:42045:1,2017-11-02T16:00:00Z,26.2168,-96.4998,4.0,6.877470465,211.5639767,8.58,'11111222,11111222,11111222' 
TABS,ioos:station:wmo:42045:1,2017-11-02T16:30:00Z,26.2168,-96.4998,4.0,7.132636259,211.0603286,8.81,'11111222,11111222,11111222' 
TABS,ioos:station:wmo:42045:1,2017-11-02T17:00:00Z,26.2168,-96.4998,4.0,6.459055659,208.9858196,7.74,'11111222,11111222,11111222' 
TABS,ioos:station:wmo:42045:1,2017-11-02T17:30:00Z,26.2168,-96.4998,4.0,7.227482273,208.6928518,8.46,'11111222,11111222,11111222' 
TABS,ioos:station:wmo:42045:1,2017-11-02T18:00:00Z,26.2168,-96.4998,4.0,7.106166336,208.5848639,8.38,'11111222,11111222,11111222' 
TABS,ioos:station:wmo:42045:1,2017-11-02T18:30:00Z,26.2168,-96.4998,4.0,6.84283567,210.7628581,8.38,'11111222,11111222,11111222' 
TABS,ioos:station:wmo:42045:1,2017-11-02T19:00:00Z,26.2168,-96.4998,4.0,6.054766717,204.4910974,7.43,'11111222,11111222,11111222' 
TABS,ioos:station:wmo:42045:1,2017-11-02T19:30:00Z,26.2168,-96.4998,4.0,6.464619092,202.5586636,7.94,'11111222,11111222,11111222' 
TABS,ioos:station:wmo:42045:1,2017-11-02T20:00:00Z,26.2168,-96.4998,4.0,6.533865625,199.2115827,7.59,'11111222,11111222,11111222' 
TABS,ioos:station:wmo:42045:1,2017-11-02T20:30:00Z,26.2168,-96.4998,4.0,6.569878233,197.0836641,8.0,'11111222,11111222,11111222' 
TABS,ioos:station:wmo:42045:1,2017-11-02T21:00:00Z,26.2168,-96.4998,4.0,6.85936586,197.8275779,8.26,'11111222,11111222,11111222' 
TABS,ioos:station:wmo:42045:1,2017-11-02T21:30:00Z,26.2168,-96.4998,4.0,6.291239941,195.5827849,7.54,'11111222,11111222,11111222' 
TABS,ioos:station:wmo:42045:1,2017-11-02T22:00:00Z,26.2168,-96.4998,4.0,6.769202316,196.2129778,8.24,'11111222,11111222,11111222' 
TABS,ioos:station:wmo:42045:1,2017-11-02T22:30:00Z,26.2168,-96.4998,4.0,6.725808502,193.4992256,8.01,'11111222,11111222,11111222' 
TABS,ioos:station:wmo:42045:1,2017-11-02T23:00:00Z,26.2168,-96.4998,4.0,6.628159624,196.6580171,8.61,'11111222,11111222,11111222' 
TABS,ioos:station:wmo:42045:1,2017-11-02T23:30:00Z,26.2168,-96.4998,4.0,6.41081898,196.3997997,7.71,'11111222,11111222,11111222' 
TABS,ioos:station:wmo:42045:1,2017-11-03T00:00:00Z,26.2168,-96.4998,4.0,6.883080706,197.0661793,8.65,'11111222,11111222,11111222' 
TABS,ioos:station:wmo:42045:1,2017-11-03T00:30:00Z,26.2168,-96.4998,4.0,6.972201948,192.7607373,8.28,'11111222,11111222,11111222' 
TABS,ioos:station:wmo:42045:1,2017-11-03T01:00:00Z,26.2168,-96.4998,4.0,7.146747512,198.4351162,8.44,'11111222,11111222,11111222' 
TABS,ioos:station:wmo:42045:1,2017-11-03T01:30:00Z,26.2168,-96.4998,4.0,7.097323439,194.8587902,8.97,'11111222,11111222,11111222' 
TABS,ioos:station:wmo:42045:1,2017-11-03T02:00:00Z,26.2168,-96.4998,4.0,6.784408596,196.3515853,7.85,'11111222,11111222,11111222' 
TABS,ioos:station:wmo:42045:1,2017-11-03T02:30:00Z,26.2168,-96.4998,4.0,7.234839321,193.9980063,10.01,'11111222,11111222,11111222' 
TABS,ioos:station:wmo:42045:1,2017-11-03T03:00:00Z,26.2168,-96.4998,4.0,7.587812597,195.8314758,9.46,'11111222,11111222,11111222' 
TABS,ioos:station:wmo:42045:1,2017-11-03T03:30:00Z,26.2168,-96.4998,4.0,6.905946713,196.8345091,8.6,'11111222,11111222,11111222' 
TABS,ioos:station:wmo:42045:1,2017-11-03T04:00:00Z,26.2168,-96.4998,4.0,7.970796698,194.977896,9.55,'11111222,11111222,11111222' 
TABS,ioos:station:wmo:42045:1,2017-11-03T04:30:00Z,26.2168,-96.4998,4.0,7.543878313,195.768216,9.28,'11111222,11111222,11111222' 
TABS,ioos:station:wmo:42045:1,2017-11-03T05:00:00Z,26.2168,-96.4998,4.0,8.191123244,202.0873304,9.59,'11111222,11111222,11111222' 
TABS,ioos:station:wmo:42045:1,2017-11-03T05:30:00Z,26.2168,-96.4998,4.0,6.499846152,209.0889939,7.87,'11111222,11111222,11111222' 
TABS,ioos:station:wmo:42045:1,2017-11-03T06:00:00Z,26.2168,-96.4998,4.0,6.922925682,204.4920542,8.91,'11111222,11111222,11111222' 
TABS,ioos:station:wmo:42045:1,2017-11-03T06:30:00Z,26.2168,-96.4998,4.0,6.600030303,202.4463999,7.87,'11111222,11111222,11111222' 
TABS,ioos:station:wmo:42045:1,2017-11-03T07:00:00Z,26.2168,-96.4998,4.0,5.982056503,200.8588818,7.24,'11111222,11111222,11111222' 
TABS,ioos:station:wmo:42045:1,2017-11-03T07:30:00Z,26.2168,-96.4998,4.0,6.361949387,201.9688062,7.6,'11111222,11111222,11111222' 
TABS,ioos:station:wmo:42045:1,2017-11-03T08:00:00Z,26.2168,-96.4998,4.0,6.693616362,200.7365395,8.32,'11111222,11111222,11111222' 
TABS,ioos:station:wmo:42045:1,2017-11-03T08:30:00Z,26.2168,-96.4998,4.0,6.625443381,197.7514297,8.02,'11111222,11111222,11111222' 
TABS,ioos:station:wmo:42045:1,2017-11-03T09:00:00Z,26.2168,-96.4998,4.0,6.177224296,195.5888296,7.61,'11111222,11111222,11111222' 
TABS,ioos:station:wmo:42045:1,2017-11-03T09:30:00Z,26.2168,-96.4998,4.0,6.497584166,193.8011659,7.8,'11111222,11111222,11111222' 
TABS,ioos:station:wmo:42045:1,2017-11-03T10:00:00Z,26.2168,-96.4998,4.0,6.578221644,197.608794,8.18,'11111222,11111222,11111222' 
TABS,ioos:station:wmo:42045:1,2017-11-03T10:30:00Z,26.2168,-96.4998,4.0,6.127136362,200.7422673,7.41,'11111222,11111222,11111222' 
TABS,ioos:station:wmo:42045:1,2017-11-03T11:00:00Z,26.2168,-96.4998,4.0,6.979147512,198.461077,8.23,'11111222,11111222,11111222' 
TABS,ioos:station:wmo:42045:1,2017-11-03T11:30:00Z,26.2168,-96.4998,4.0,7.000714249,201.801569,8.63,'11111222,11111222,11111222' 
TABS,ioos:station:wmo:42045:1,2017-11-03T12:00:00Z,26.2168,-96.4998,4.0,7.103273893,196.5217194,9.06,'11111222,11111222,11111222' 
TABS,ioos:station:wmo:42045:1,2017-11-03T12:30:00Z,26.2168,-96.4998,4.0,6.497076266,203.0134745,8.21,'11111222,11111222,11111222' 
TABS,ioos:station:wmo:42045:1,2017-11-03T13:00:00Z,26.2168,-96.4998,4.0,6.092002955,196.2039468,7.37,'11111222,11111222,11111222' 
TABS,ioos:station:wmo:42045:1,2017-11-03T13:30:00Z,26.2168,-96.4998,4.0,6.015729382,199.5194469,7.62,'11111222,11111222,11111222' 
TABS,ioos:station:wmo:42045:1,2017-11-03T14:00:00Z,26.2168,-96.4998,4.0,6.022441365,199.6987858,7.09,'11111222,11111222,11111222' 
TABS,ioos:station:wmo:42045:1,2017-11-03T14:30:00Z,26.2168,-96.4998,4.0,5.929797636,197.6712195,7.22,'11111222,11111222,11111222' 
TABS,ioos:station:wmo:42045:1,2017-11-03T15:00:00Z,26.2168,-96.4998,4.0,6.278096845,199.4452622,7.67,'11111222,11111222,11111222' 
TABS,ioos:station:wmo:42045:1,2017-11-03T15:30:00Z,26.2168,-96.4998,4.0,6.247599539,190.1409799,7.67,'11111222,11111222,11111222' 
TABS,ioos:station:wmo:42045:1,2017-11-03T16:00:00Z,26.2168,-96.4998,4.0,6.241193796,188.662597,7.86,'11111222,11111222,11111222' 
TABS,ioos:station:wmo:42045:1,2017-11-03T16:30:00Z,26.2168,-96.4998,4.0,6.377342707,190.0237802,7.78,'11111222,11111222,11111222' 
TABS,ioos:station:wmo:42045:1,2017-11-03T17:00:00Z,26.2168,-96.4998,4.0,6.115455829,192.0818521,7.6,'11111222,11111222,11111222' 
TABS,ioos:station:wmo:42045:1,2017-11-03T17:30:00Z,26.2168,-96.4998,4.0,5.952722066,192.1218291,7.11,'11111222,11111222,11111222' 
TABS,ioos:station:wmo:42045:1,2017-11-03T18:00:00Z,26.2168,-96.4998,4.0,5.829099416,192.0812092,7.16,'11111222,11111222,11111222' 
TABS,ioos:station:wmo:42045:1,2017-11-03T18:30:00Z,26.2168,-96.4998,4.0,5.716589893,193.8662606,7.05,'11111222,11111222,11111222' 
TABS,ioos:station:wmo:42045:1,2017-11-03T19:00:00Z,26.2168,-96.4998,4.0,5.675667362,191.5872875,6.76,'11111222,11111222,11111222' 
TABS,ioos:station:wmo:42045:1,2017-11-03T19:30:00Z,26.2168,-96.4998,4.0,5.936345677,192.7488322,7.83,'11111222,11111222,11111222' 
TABS,ioos:station:wmo:42045:1,2017-11-03T20:00:00Z,26.2168,-96.4998,4.0,6.044245197,197.3259199,7.28,'11111222,11111222,11111222' 
TABS,ioos:station:wmo:42045:1,2017-11-03T20:30:00Z,26.2168,-96.4998,4.0,6.075689261,191.1991502,7.17,'11111222,11111222,11111222' 
TABS,ioos:station:wmo:42045:1,2017-11-03T21:00:00Z,26.2168,-96.4998,4.0,6.108166664,188.5680617,7.47,'11111222,11111222,11111222' 
TABS,ioos:station:wmo:42045:1,2017-11-03T21:30:00Z,26.2168,-96.4998,4.0,6.246350935,191.543975,7.64,'11111222,11111222,11111222' 
TABS,ioos:station:wmo:42045:1,2017-11-03T22:00:00Z,26.2168,-96.4998,4.0,6.003140845,193.3882556,7.13,'11111222,11111222,11111222' 
TABS,ioos:station:wmo:42045:1,2017-11-03T22:30:00Z,26.2168,-96.4998,4.0,6.102753477,194.8106395,7.69,'11111222,11111222,11111222' 
TABS,ioos:station:wmo:42045:1,2017-11-03T23:00:00Z,26.2168,-96.4998,4.0,5.74251687,189.7249566,6.74,'11111222,11111222,11111222' 
TABS,ioos:station:wmo:42045:1,2017-11-03T23:30:00Z,26.2168,-96.4998,4.0,5.591967453,190.4058408,7.09,'11111222,11111222,11111222' 
TABS,ioos:station:wmo:42045:1,2017-11-04T00:00:00Z,26.2168,-96.4998,4.0,6.051884004,188.8399255,7.1,'11111222,11111222,11111222' 
TABS,ioos:station:wmo:42045:1,2017-11-04T00:30:00Z,26.2168,-96.4998,4.0,6.016120012,185.3412072,7.47,'11111222,11111222,11111222' 
TABS,ioos:station:wmo:42045:1,2017-11-04T01:00:00Z,26.2168,-96.4998,4.0,6.198144884,185.4624401,7.53,'11111222,11111222,11111222' 
TABS,ioos:station:wmo:42045:1,2017-11-04T01:30:00Z,26.2168,-96.4998,4.0,6.177539963,186.3199027,7.4,'11111222,11111222,11111222' 
TABS,ioos:station:wmo:42045:1,2017-11-04T02:00:00Z,26.2168,-96.4998,4.0,6.390782425,180.8967827,7.35,'11111222,11111222,11111222' 
TABS,ioos:station:wmo:42045:1,2017-11-04T02:30:00Z,26.2168,-96.4998,4.0,6.38571061,182.4235018,7.67,'11111222,11111222,11111222' 
TABS,ioos:station:wmo:42045:1,2017-11-04T03:00:00Z,26.2168,-96.4998,4.0,6.73668316,182.5525615,7.99,'11111222,11111222,11111222' 
TABS,ioos:station:wmo:42045:1,2017-11-04T03:30:00Z,26.2168,-96.4998,4.0,6.435060217,183.9208838,8.28,'11111222,11111222,11111222' 
TABS,ioos:station:wmo:42045:1,2017-11-04T04:00:00Z,26.2168,-96.4998,4.0,6.605792912,188.0934951,8.0,'11111222,11111222,11111222' 
TABS,ioos:station:wmo:42045:1,2017-11-04T04:30:00Z,26.2168,-96.4998,4.0,6.515658063,192.1379309,7.98,'11111222,11111222,11111222' 
TABS,ioos:station:wmo:42045:1,2017-11-04T05:00:00Z,26.2168,-96.4998,4.0,6.371577513,194.4508095,7.55,'11111222,11111222,11111222' 
TABS,ioos:station:wmo:42045:1,2017-11-04T05:30:00Z,26.2168,-96.4998,4.0,7.216494994,193.0543062,8.57,'11111222,11111222,11111222' 
TABS,ioos:station:wmo:42045:1,2017-11-04T06:00:00Z,26.2168,-96.4998,4.0,7.046651687,190.8795701,8.63,'11111222,11111222,11111222' 
TABS,ioos:station:wmo:42045:1,2017-11-04T06:30:00Z,26.2168,-96.4998,4.0,7.112812383,201.0087555,8.46,'11111222,11111222,11111222' 
TABS,ioos:station:wmo:42045:1,2017-11-04T07:00:00Z,26.2168,-96.4998,4.0,6.856391179,208.7706651,8.19,'11111222,11111222,11111222' 
TABS,ioos:station:wmo:42045:1,2017-11-04T07:30:00Z,26.2168,-96.4998,4.0,6.160008117,213.9481697,7.29,'11111222,11111222,11111222' 
TABS,ioos:station:wmo:42045:1,2017-11-04T08:00:00Z,26.2168,-96.4998,4.0,5.687046685,209.4950973,6.64,'11111222,11111222,11111222' 
TABS,ioos:station:wmo:42045:1,2017-11-04T08:30:00Z,26.2168,-96.4998,4.0,4.892494251,213.9175617,6.05,'11111222,11111222,11111222' 
TABS,ioos:station:wmo:42045:1,2017-11-04T09:00:00Z,26.2168,-96.4998,4.0,4.526245685,219.3518711,5.42,'11111222,11111222,11111222' 
TABS,ioos:station:wmo:42045:1,2017-11-04T09:30:00Z,26.2168,-96.4998,4.0,4.510698394,214.8880886,5.54,'11111222,11111222,11111222' 
TABS,ioos:station:wmo:42045:1,2017-11-04T10:00:00Z,26.2168,-96.4998,4.0,4.820995748,206.3526007,6.42,'11111222,11111222,11111222' 
TABS,ioos:station:wmo:42045:1,2017-11-04T10:30:00Z,26.2168,-96.4998,4.0,6.161046989,200.5235543,7.25,'11111222,11111222,11111222' 
TABS,ioos:station:wmo:42045:1,2017-11-04T11:00:00Z,26.2168,-96.4998,4.0,6.36777041,202.336246,7.56,'11111222,11111222,11111222' 
TABS,ioos:station:wmo:42045:1,2017-11-04T11:30:00Z,26.2168,-96.4998,4.0,6.710029806,207.9018554,7.8,'11111222,11111222,11111222' 
TABS,ioos:station:wmo:42045:1,2017-11-04T12:00:00Z,26.2168,-96.4998,4.0,6.496399003,211.1454008,8.38,'11111222,11111222,11111222' 
TABS,ioos:station:wmo:42045:1,2017-11-04T12:30:00Z,26.2168,-96.4998,4.0,6.691008893,212.5501378,8.1,'11111222,11111222,11111222' 
TABS,ioos:station:wmo:42045:1,2017-11-04T13:00:00Z,26.2168,-96.4998,4.0,6.79485835,221.3605513,8.06,'11111222,11111222,11111222' 
TABS,ioos:station:wmo:42045:1,2017-11-04T13:30:00Z,26.2168,-96.4998,4.0,6.372448509,223.792052,8.0,'11111222,11111222,11111222' 
TABS,ioos:station:wmo:42045:1,2017-11-04T14:00:00Z,26.2168,-96.4998,4.0,6.263361717,222.6060882,7.55,'11111222,11111222,11111222' 
TABS,ioos:station:wmo:42045:1,2017-11-04T14:30:00Z,26.2168,-96.4998,4.0,6.34996063,224.6172892,7.95,'11111222,11111222,11111222' 
TABS,ioos:station:wmo:42045:1,2017-11-04T15:00:00Z,26.2168,-96.4998,4.0,6.599189344,228.9938575,7.68,'11111222,11111222,11111222' 
TABS,ioos:station:wmo:42045:1,2017-11-04T15:30:00Z,26.2168,-96.4998,4.0,6.634832326,223.5344383,7.69,'11111222,11111222,11111222' 
TABS,ioos:station:wmo:42045:1,2017-11-04T16:00:00Z,26.2168,-96.4998,4.0,6.519539861,224.8758199,7.53,'11111222,11111222,11111222' 
TABS,ioos:station:wmo:42045:1,2017-11-04T16:30:00Z,26.2168,-96.4998,4.0,6.451829198,221.7958999,7.36,'11111222,11111222,11111222' 
TABS,ioos:station:wmo:42045:1,2017-11-04T17:00:00Z,26.2168,-96.4998,4.0,6.209702086,223.8256438,7.22,'11111222,11111222,11111222' 
TABS,ioos:station:wmo:42045:1,2017-11-04T17:30:00Z,26.2168,-96.4998,4.0,6.06617672,222.3945165,7.53,'11111222,11111222,11111222' 
TABS,ioos:station:wmo:42045:1,2017-11-04T18:00:00Z,26.2168,-96.4998,4.0,6.253359097,228.1763341,7.43,'11111222,11111222,11111222' 
TABS,ioos:station:wmo:42045:1,2017-11-04T18:30:00Z,26.2168,-96.4998,4.0,6.314119099,228.7885622,7.71,'11111222,11111222,11111222' 